Карточка аэропорта USNN

Внимание!
Информация на этой странице в стадии наполнения.
Если вы не увидели какой-то информации, или заметили неточность - пожалуйста сообщите нам!
Спасибо!
Команда RU-STAFF
Название аэропортаНижневартовск
Название аэропорта (англ.)Nizhnevartovsk
Превышение177 ft. (53.9 m.)
Координаты60°57', 76°28.998'
Высота перехода800m
Эшелон переходаQFE>=756mm:FL040; QFE<756=>729:FL050; QFE<729:FL060
Коды ответчика5630-5633
Зона ОрВДТюмень РПИ (USTV)
Данные METARUSNN 282230Z 28003MPS 9999 -SN BKN007 OVC025 M03/M03 Q1021 R21/490535 NOSIG RMK QFE761
Проноз погоды (TAF)USNN 281948Z 2821/2921 28003G08MPS 6000 -SN OVC007 TEMPO 2821/2906 2100 -SHSN BR BKN003 BKN016CB BECMG 2906/2907 9999 NSW FEW010 BKN016
NOTAMshow/hide NOTAM
AWOS   TABLE

Информация о ВПП

ВПП Длина ВПП (м.) Покрытие Курс ВПП Частота ILS
033200Асфальтобетон26110.5
213200Асфальтобетон206111.9

Диспетчерские позиции

Позывной Наименование органа УВД Частота
USNN_TWRНижневартовск - Вышка118.100
USNN_APPНижневартовск - Круг120.400



Спутниковое изображение